This is the latest recevied weather packets stored in our database for station/object KF0FSA. If no packets are shown the sender has not sent any weather packets the latest 10 day(s).
| Time | Temp. | Humidity | Pressure | Rain* | Wind** | Luminosity | Snow |
|---|---|---|---|---|---|---|---|
| 1777772643 | 17.78° C | 28% | 956.3 hPa | 0 mm | - | 0 W/m² | - |
| 1777772343 | 17.78° C | 28% | 956.3 hPa | 0 mm | - | 0 W/m² | - |
| 1777772040 | 17.78° C | 28% | 956.4 hPa | 0 mm | - | 2 W/m² | - |
| 1777771741 | 17.78° C | 28% | 956.4 hPa | 0 mm | - | 3 W/m² | - |
| 1777771454 | 18.33° C | 27% | 956.5 hPa | 0 mm | - | 5 W/m² | - |
| 1777771277 | 18.33° C | 28% | 956.5 hPa | 0 mm | - | 7 W/m² | - |
| 1777770840 | 18.33° C | 27% | 956.5 hPa | 0 mm | - | 10 W/m² | - |
| 1777770664 | 18.33° C | 27% | 956.5 hPa | 0 mm | - | 13 W/m² | - |
| 1777770240 | 18.33° C | 26% | 956.6 hPa | 0 mm | - | 17 W/m² | - |
| 1777769941 | 18.89° C | 26% | 956.7 hPa | 0 mm | - | 21 W/m² | - |
| 1777769637 | 18.89° C | 26% | 956.7 hPa | 0 mm | - | 26 W/m² | - |
| 1777769339 | 18.89° C | 25% | 956.7 hPa | 0 mm | - | 28 W/m² | - |
| 1777769037 | 19.44° C | 25% | 956.8 hPa | 0 mm | - | 32 W/m² | - |
| 1777768737 | 19.44° C | 25% | 956.9 hPa | 0 mm | - | 32 W/m² | - |
| 1777768437 | 19.44° C | 24% | 957 hPa | 0 mm | - | 35 W/m² | - |
| 1777768262 | 20° C | 24% | 957 hPa | 0 mm | - | 43 W/m² | - |
| 1777767962 | 20° C | 24% | 957.1 hPa | 0 mm | - | 64 W/m² | - |
| 1777767538 | 20.56° C | 23% | 957.2 hPa | 0 mm | - | 89 W/m² | - |
| 1777767238 | 20.56° C | 22% | 957.1 hPa | 0 mm | - | 123 W/m² | - |
| 1777767062 | 20.56° C | 22% | 957.3 hPa | 0 mm | - | 118 W/m² | - |
| 1777766638 | 20.56° C | 22% | 957.4 hPa | 0 mm | - | 109 W/m² | - |
| 1777766338 | 20.56° C | 23% | 957.4 hPa | 0 mm | - | 189 W/m² | - |
| 1777766035 | 20.56° C | 22% | 957.6 hPa | 0 mm | - | 180 W/m² | - |
| 1777765732 | 20.56° C | 22% | 957.7 hPa | 0 mm | - | 194 W/m² | - |
| 1777765433 | 20.56° C | 23% | 957.8 hPa | 0 mm | - | 195 W/m² | - |
* Rain latest hour (hover to see other rain measurements)
** Current wind speed in m/s (hover to see current wind gust speed)